Location: Liberec
(50.7830°N, 15.0500°E)
Time: 18:53:58
(UTC+02:00)

ISS - Pass Details

Date: 25 May 2021
Orbit: 417 x 422 km, 51.6° (Epoch: 16 June)

Event Time Altitude Azimuth Distance (km) Brightness Sun altitude
Rises 22:12:09 0° 283° (WNW) 2,367 1.0 -9.5°
Reaches altitude 10° 22:14:15 10° 282° (WNW) 1,502 -0.1 -9.7°
Maximum altitude 22:17:37 79° 197° (SSW) 432 -3.8 -10.0°
Enters shadow 22:20:44 12° 110° (ESE) 1,400 -1.6 -10.3°
